EW6791 Weather Reports


Display with metric or nautical units.
time (UTC)temp
F
wind
direction
speed
MPH
gust
MPH
rain 1hr
in
rain 24hr
in
rain mn
in
humidity
%
barometer
mb
20260509130038 49 59 0.0 3.0 0.00 0.00 0.00 59 1000.6
20260509124546 50 1 0.0 4.0 0.00 0.00 0.00 60 1000.9
20260509123039 50 357 0.0 1.0 0.00 0.00 0.00 60 1001.0
20260509121550 49 342 0.0 1.0 0.00 0.00 0.00 59 1000.7
20260509120033 49 48 0.0 0.0 0.00 0.00 0.00 55 1000.5
20260509114549 49 72 0.0 1.0 0.00 0.00 0.00 52 1001.1
20260509113031 50 55 0.0 0.0 0.00 0.00 0.00 51 1001.4
20260509111530 50 16 0.0 2.0 0.00 0.00 0.00 51 1001.5
20260509110028 49 356 3.0 5.0 0.00 0.00 0.00 50 1001.4
20260509104526 48 301 0.0 2.0 0.00 0.00 0.00 50 1001.2
20260509103021 46 203 0.0 0.0 0.00 0.00 0.00 51 1001.0
20260509101518 46 120 0.0 0.0 0.00 0.00 0.00 52 1001.5
20260509100015 45 120 0.0 0.0 0.00 0.00 0.00 53 1001.8
20260509094517 45 120 0.0 0.0 0.00 0.00 0.00 54 1002.0
20260509093013 45 120 0.0 1.0 0.00 0.00 0.00 55 1002.1
20260509091511 45 179 0.0 1.0 0.00 0.00 0.00 56 1002.3
20260509090031 45 191 0.0 1.0 0.00 0.00 0.00 58 1002.3
20260509084510 45 190 0.0 1.0 0.00 0.00 0.00 60 1002.4
20260509083018 46 158 0.0 3.0 0.00 0.00 0.00 62 1002.4
20260509081507 46 128 0.0 1.0 0.00 0.00 0.00 66 1002.5
20260509080010 45 109 0.0 1.0 0.00 0.00 0.00 68 1002.6
20260509074511 45 108 0.0 0.0 0.00 0.00 0.00 67 1002.6
20260509073006 45 108 0.0 0.0 0.00 0.00 0.00 67 1002.7
20260509071502 46 108 0.0 0.0 0.00 0.00 0.00 67 1002.8
20260509070001 46 60 0.0 0.0 0.00 0.00 0.00 67 1002.9
20260509064559 46 20 0.0 0.0 0.00 0.00 0.00 65 1003.2
20260509063120 46 53 0.0 0.0 0.00 0.00 0.00 63 1003.3
20260509061559 46 53 0.0 0.0 0.00 0.00 0.00 61 1003.5
20260509060056 47 88 0.0 0.0 0.00 0.00 0.00 60 1003.7
20260509054554 47 44 0.0 0.0 0.00 0.00 0.00 60 1003.9
20260509053050 47 102 0.0 0.0 0.00 0.00 0.00 58 1004.0
20260509051552 47 125 0.0 0.0 0.00 0.00 0.00 56 1004.0
20260509050057 46 147 0.0 0.0 0.00 0.00 0.00 56 1004.1
20260509044543 45 147 0.0 0.0 0.00 0.00 0.00 55 1004.3
20260509043046 45 147 0.0 0.0 0.00 0.00 0.00 53 1004.3
20260509041540 44 147 0.0 0.0 0.00 0.00 0.00 52 1004.4
20260509040039 45 147 0.0 0.0 0.00 0.00 0.00 53 1004.5
20260509034536 46 147 0.0 0.0 0.00 0.00 0.00 51 1004.6
20260509033041 46 154 0.0 0.0 0.00 0.00 0.00 51 1004.7
20260509031535 46 185 0.0 0.0 0.00 0.00 0.00 50 1004.7
20260509030035 47 185 0.0 0.0 0.00 0.00 0.00 48 1004.9
20260509024539 48 185 0.0 0.0 0.00 0.00 0.00 46 1004.9
20260509023035 49 185 0.0 0.0 0.00 0.00 0.00 44 1004.9
20260509021533 50 184 0.0 0.0 0.00 0.00 0.00 41 1005.0
20260509020033 50 184 0.0 0.0 0.00 0.00 0.00 39 1005.0
20260509014532 51 184 0.0 0.0 0.00 0.00 0.00 38 1004.9
20260509013030 52 184 0.0 0.0 0.00 0.00 0.00 36 1004.8
20260509011530 54 184 0.0 0.0 0.00 0.00 0.00 35 1004.7
20260509010034 54 197 0.0 0.0 0.00 0.00 0.00 34 1004.6
20260509004529 56 197 0.0 0.0 0.00 0.00 0.00 29 1004.6
20260509003029 57 197 0.0 1.0 0.00 0.00 0.00 28 1004.5
20260509001528 58 190 0.0 0.0 0.00 0.00 0.00 26 1004.4
20260509000038 59 167 0.0 2.0 0.00 0.00 0.00 25 1004.5
20260508234526 60 134 0.0 1.0 0.00 0.00 0.00 23 1004.6
20260508233026 61 132 0.0 2.0 0.00 0.00 0.00 21 1004.6
20260508231525 62 185 0.0 4.0 0.00 0.00 0.00 22 1004.6
20260508230023 62 184 0.0 2.0 0.00 0.00 0.00 21 1004.7
20260508224543 61 148 0.0 7.0 0.00 0.00 0.00 20 1004.7
20260508223021 63 203 1.0 10.0 0.00 0.00 0.00 19 1004.7
20260508221525 64 184 2.0 9.0 0.00 0.00 0.00 17 1004.9
20260508220029 64 191 1.0 5.0 0.00 0.00 0.00 18 1004.9
20260508214527 64 37 1.0 7.0 0.00 0.00 0.00 18 1004.9
20260508213028 64 145 2.0 7.0 0.00 0.00 0.00 17 1005.0
20260508211522 64 206 2.0 7.0 0.00 0.00 0.00 17 1005.1
20260508210017 63 182 1.0 6.0 0.00 0.00 0.00 19 1005.3
20260508204512 64 199 2.0 7.0 0.00 0.00 0.00 18 1005.5
20260508203011 63 187 3.0 7.0 0.00 0.00 0.00 20 1005.6
20260508201508 63 183 1.0 5.0 0.00 0.00 0.00 24 1005.8
20260508200013 62 132 0.0 7.0 0.00 0.00 0.00 20 1006.1
20260508194603 61 162 2.0 9.0 0.00 0.00 0.00 20 1006.4
20260508193104 61 172 1.0 6.0 0.00 0.00 0.00 22 1006.7
20260508191554 61 202 1.0 6.0 0.00 0.00 0.00 22 1007.0
20260508190052 60 179 1.0 9.0 0.00 0.00 0.00 21 1007.1
20260508184550 61 176 1.0 5.0 0.00 0.00 0.00 23 1007.3
20260508183100 60 143 0.0 9.0 0.00 0.00 0.00 23 1007.5
20260508181554 60 322 1.0 8.0 0.00 0.00 0.00 22 1007.7
20260508180040 59 266 1.0 9.0 0.00 0.00 0.00 25 1008.0
20260508174539 58 243 3.0 8.0 0.00 0.00 0.00 27 1008.1
20260508173037 58 150 2.0 7.0 0.00 0.00 0.00 27 1008.4
20260508171536 56 197 2.0 6.0 0.00 0.00 0.00 32 1008.6
20260508170030 56 293 0.0 5.0 0.00 0.00 0.00 37 1008.8
20260508164526 56 273 0.0 8.0 0.00 0.00 0.00 37 1008.9
20260508163026 55 255 2.0 7.0 0.00 0.00 0.00 34 1009.1
20260508161531 54 283 2.0 9.0 0.00 0.00 0.00 33 1009.2
20260508160020 54 264 2.0 9.0 0.00 0.00 0.00 33 1009.3
20260508154516 53 270 2.0 8.0 0.00 0.00 0.00 41 1009.3
20260508153014 52 95 1.0 6.0 0.00 0.00 0.00 42 1009.6
20260508151516 53 259 0.0 4.0 0.00 0.00 0.00 42 1009.7
20260508150019 53 302 0.0 6.0 0.00 0.00 0.00 42 1009.7
20260508144526 52 259 0.0 5.0 0.00 0.00 0.00 41 1009.8
20260508143024 52 174 0.0 6.0 0.00 0.00 0.00 43 1009.9
20260508141519 52 217 1.0 5.0 0.00 0.00 0.00 40 1010.0
20260508140008 52 181 0.0 5.0 0.00 0.00 0.00 39 1009.9
20260508134507 51 198 1.0 5.0 0.00 0.00 0.00 39 1009.8
20260508133006 51 249 0.0 2.0 0.00 0.00 0.00 40 1009.9
20260508131504 51 85 0.0 2.0 0.00 0.00 0.00 43 1009.9